Regional Weather Roundup
Issued by NWS

Home | Current Version | Previous Version | Text Only | Print | Product List | Glossary Off
Versions: 1 2 3 4 5 6 7 8 9 10 11 12 13 14 15 16 17 18 19 20 21 22 23 24 25 26 27 28 29 30 31 32 33 34 35 36 37 38 39 40 41 42 43 44 45 46 47 48 49 50

000
ASUS43 KLOT 171500
RWRIL

ILLINOIS REGIONAL WEATHER ROUNDUP
NATIONAL WEATHER SERVICE CHICAGO/ROMEOVILLE IL
1000 AM CDT WED SEP 17 2014

NOTE: "FAIR" INDICATES FEW OR NO CLOUDS BELOW 12,000 FEET WITH NO
SIGNIFICANT WEATHER AND/OR OBSTRUCTIONS TO VISIBILITY.

* THESE STATIONS ARE NOT UNDER NWS QUALITY CONTROL. THEY ALSO MAY NOT
  REPORT WEATHER SUCH AS PRECIPITATION OR FOG.

ILZ001-002-007-009-015-016-024-171600-
NORTHWEST ILLINOIS

CITY           SKY/WX    TMP DP  RH WIND       PRES   REMARKS
MOLINE         CLOUDY    60  52  74 SW3       30.02R
STERLING*      SUNNY     63  54  72 W3        30.03S
$$

ILZ003-004-008-010-011-017-018-171600-
NORTH CENTRAL ILLINOIS

CITY           SKY/WX    TMP DP  RH WIND       PRES   REMARKS
ROCKFORD       PTSUNNY   58  48  69 S3        30.05F
$$

ILZ005-006-012>014-019>023-171600-
NORTHEAST ILLINOIS

CITY           SKY/WX    TMP DP  RH WIND       PRES   REMARKS
CHICAGO-OHARE  MOSUNNY   60  45  57 VRB5      30.03F
CHICAGO-MIDWAY MOSUNNY   64  46  52 CALM      30.03F
AURORA         SUNNY     60  47  61 CALM      30.04F
WAUKEGAN       SUNNY     62  45  53 VRB5      30.02F
DUPAGE AIRPORT SUNNY     61  46  57 SW5       30.03F
WHEELING       SUNNY     62  46  55 SW3       30.04F
NORTHERLY ISL    N/A     63  44  50 W7          N/A
$$

LMZ740>746-171600-
SOUTHERN LAKE MICHIGAN

STATION/POSITION SKY/WX   TEMP    WIND        PRES    VSBY  WAVE
                          AIR SEA DIR/SP/G                  HT/PER
                          (F)     (DEG/KT/KT) (MB)    (MI)  (FT/S)
SOUTHERN BUOY              61 65  240/ 10/ 12 1017.2F         1/ 3
WAUKEGAN HARBOR            60     240/  5/  6   N/A
HARRISON CRIB              58     250/  5/  6   N/A
BURNHAM HARBOR             63     290/  3/  8   N/A
CALUMET HARBOR             61     210/  2/  4 1015.8F
MICHIGAN CITY              56     130/  6/  8   N/A
MICHIGAN CITY 6N           59 65  210/  4/  6   N/A           1
ST. JOSEPH                 59 66  180/  6/ 10   N/A           1/ 3
$$

ILZ025>027-034>036-040-047-049-050-058-095>099-171600-
WEST-CENTRAL ILLINOIS

CITY           SKY/WX    TMP DP  RH WIND       PRES   REMARKS
QUINCY         CLOUDY    58  53  84 SE8       30.02R
$$

ILZ028>032-037-038-041>044-048-051>054-059>061-171600-
CENTRAL ILLINOIS

CITY           SKY/WX    TMP DP  RH WIND       PRES   REMARKS
DECATUR        PTSUNNY   60  53  77 S3        30.06R
PEORIA         CLOUDY    59  52  77 S7        30.05R
SPRINGFIELD    CLOUDY    60  53  77 S5        30.06R
TAYLORVILLE    NOT AVBL
$$

ILZ033-039-045-046-055>057-062-063-171600-
EAST-CENTRAL ILLINOIS

CITY           SKY/WX    TMP DP  RH WIND       PRES   REMARKS
CHAMPAIGN      MOSUNNY   61  54  77 CALM      30.06R
MATTOON        MOSUNNY   60  53  77 S5        30.04R
$$

ILZ079-100>102-171600-
SOUTHWEST ILLINOIS

CITY           SKY/WX    TMP DP  RH WIND       PRES   REMARKS
BELLEVILLE     PTSUNNY   58  56  92 VRB1      30.08R
CAHOKIA*       LGT RAIN  59  54  83 S6        30.06R
$$

ILZ064>066-069>071-074>076-080>082-084>086-088>090-092>094-171600-
SOUTH-CENTRAL ILLINOIS

CITY           SKY/WX    TMP DP  RH WIND       PRES   REMARKS
CARBONDALE     PTSUNNY   59  53  80 SE5       30.06R
MARION         PTSUNNY   59  55  88 S6        30.07S
MT. VERNON     MOSUNNY   59  52  77 S5        30.08R
$$

ILZ067-068-072-073-078-083-087-091-171600-
SOUTHEAST ILLINOIS

CITY           SKY/WX    TMP DP  RH WIND       PRES   REMARKS
LAWRENCEVILLE  SUNNY     61  53  75 E3        30.06F
$$

ABBREVIATIONS USED IN REMARKS
   TC - TEMPERATURE IN CELSIUS
  WCI - WIND CHILL INDEX
   HX - HEAT INDEX
  VSB - VISIBILITY
$$



USA.gov is the U.S. government's official web portal to all federal, state and local government web resources and services.